Year,Month,Day,Hour,Minute,Value (Times are PST for temperature in C)
2017,06,24,00,00,21.90
2017,06,24,00,01,21.90
2017,06,24,00,02,21.90
2017,06,24,00,03,21.90
2017,06,24,00,04,22.00
2017,06,24,00,05,22.00
2017,06,24,00,06,22.00
2017,06,24,00,07,22.10
2017,06,24,00,08,22.10
2017,06,24,00,09,22.10
2017,06,24,00,10,22.10
2017,06,24,00,11,22.20
2017,06,24,00,12,22.20
2017,06,24,00,13,22.20
2017,06,24,00,14,22.30
2017,06,24,00,15,22.30
2017,06,24,00,16,22.30
2017,06,24,00,17,22.30
2017,06,24,00,18,22.30
2017,06,24,00,19,22.30
2017,06,24,00,20,22.40
2017,06,24,00,21,22.50
2017,06,24,00,22,22.50
2017,06,24,00,23,22.60
2017,06,24,00,24,22.70
2017,06,24,00,25,22.70
2017,06,24,00,26,22.70
2017,06,24,00,27,22.80
2017,06,24,00,28,22.80
2017,06,24,00,29,22.80
2017,06,24,00,30,22.80
2017,06,24,00,31,22.80
2017,06,24,00,32,22.80
2017,06,24,00,33,22.80
2017,06,24,00,34,22.80
2017,06,24,00,35,22.80
2017,06,24,00,36,22.80
2017,06,24,00,37,22.70
2017,06,24,00,38,22.70
2017,06,24,00,39,22.70
2017,06,24,00,40,22.70
2017,06,24,00,41,22.60
2017,06,24,00,42,22.60
2017,06,24,00,43,22.60
2017,06,24,00,44,22.60
2017,06,24,00,45,22.60
2017,06,24,00,46,22.60
2017,06,24,00,47,22.60
2017,06,24,00,48,22.60
2017,06,24,00,49,22.60
2017,06,24,00,50,22.50
2017,06,24,00,51,22.50
2017,06,24,00,52,22.50
2017,06,24,00,53,22.50
2017,06,24,00,54,22.40
2017,06,24,00,55,22.40
2017,06,24,00,56,22.30
2017,06,24,00,57,22.30
2017,06,24,00,58,22.30
2017,06,24,00,59,22.20
2017,06,24,01,00,22.20
2017,06,24,01,01,22.20
2017,06,24,01,02,22.20
2017,06,24,01,03,22.20
2017,06,24,01,04,22.20
2017,06,24,01,05,22.20
2017,06,24,01,06,22.10
2017,06,24,01,07,22.10
2017,06,24,01,08,22.10
2017,06,24,01,09,22.10
2017,06,24,01,10,22.10
2017,06,24,01,11,22.20
2017,06,24,01,12,22.20
2017,06,24,01,13,22.20
2017,06,24,01,14,22.30
2017,06,24,01,15,22.30
2017,06,24,01,16,22.30
2017,06,24,01,17,22.30
2017,06,24,01,18,22.40
2017,06,24,01,19,22.40
2017,06,24,01,20,22.40
2017,06,24,01,21,22.50
2017,06,24,01,22,22.50
2017,06,24,01,23,22.50
2017,06,24,01,24,22.50
2017,06,24,01,25,22.50
2017,06,24,01,26,22.50
2017,06,24,01,27,22.40
2017,06,24,01,28,22.40
2017,06,24,01,29,22.40
2017,06,24,01,30,22.40
2017,06,24,01,31,22.30
2017,06,24,01,32,22.30
2017,06,24,01,33,22.30
2017,06,24,01,34,22.30
2017,06,24,01,35,22.20
2017,06,24,01,36,22.20
2017,06,24,01,37,22.20
2017,06,24,01,38,22.20
2017,06,24,01,39,22.20
2017,06,24,01,40,22.20
2017,06,24,01,41,22.20
2017,06,24,01,42,22.20
2017,06,24,01,43,22.20
2017,06,24,01,44,22.20
2017,06,24,01,45,22.30
2017,06,24,01,46,22.30
2017,06,24,01,47,22.30
2017,06,24,01,48,22.30
2017,06,24,01,49,22.40
2017,06,24,01,50,22.40
2017,06,24,01,51,22.40
2017,06,24,01,52,22.40
2017,06,24,01,53,22.40
2017,06,24,01,54,22.40
2017,06,24,01,55,22.40
2017,06,24,01,56,22.40
2017,06,24,01,57,22.40
2017,06,24,01,58,22.40
2017,06,24,01,59,22.40
2017,06,24,02,00,22.40
2017,06,24,02,01,22.40
2017,06,24,02,02,22.40
2017,06,24,02,03,22.40
2017,06,24,02,04,22.40
2017,06,24,02,05,22.40
2017,06,24,02,06,22.40
2017,06,24,02,07,22.40
2017,06,24,02,08,22.40
2017,06,24,02,09,22.40
2017,06,24,02,10,22.40
2017,06,24,02,11,22.40
2017,06,24,02,12,22.40
2017,06,24,02,13,22.40
2017,06,24,02,14,22.40
2017,06,24,02,15,22.40
2017,06,24,02,16,22.40
2017,06,24,02,17,22.40
2017,06,24,02,18,22.40
2017,06,24,02,19,22.40
2017,06,24,02,20,22.40
2017,06,24,02,21,22.40
2017,06,24,02,22,22.40
2017,06,24,02,23,22.40
2017,06,24,02,24,22.40
2017,06,24,02,25,22.40
2017,06,24,02,26,22.40
2017,06,24,02,27,22.40
2017,06,24,02,28,22.40
2017,06,24,02,29,22.40
2017,06,24,02,30,22.40
2017,06,24,02,31,22.40
2017,06,24,02,32,22.40
2017,06,24,02,33,22.40
2017,06,24,02,34,22.40
2017,06,24,02,35,22.40
2017,06,24,02,36,22.30
2017,06,24,02,37,22.30
2017,06,24,02,38,22.30
2017,06,24,02,39,22.20
2017,06,24,02,40,22.20
2017,06,24,02,41,22.20
2017,06,24,02,42,22.20
2017,06,24,02,43,22.20
2017,06,24,02,44,22.10
2017,06,24,02,45,22.10
2017,06,24,02,46,22.10
2017,06,24,02,47,22.10
2017,06,24,02,48,22.00
2017,06,24,02,49,22.00
2017,06,24,02,50,21.90
2017,06,24,02,51,21.90
2017,06,24,02,52,21.90
2017,06,24,02,53,21.90
2017,06,24,02,54,21.80
2017,06,24,02,55,21.80
2017,06,24,02,56,21.80
2017,06,24,02,57,21.80
2017,06,24,02,58,21.80
2017,06,24,02,59,21.80
2017,06,24,03,00,21.70
2017,06,24,03,01,21.70
2017,06,24,03,02,21.70
2017,06,24,03,03,21.70
2017,06,24,03,04,21.60
2017,06,24,03,05,21.60
2017,06,24,03,06,21.60
2017,06,24,03,07,21.60
2017,06,24,03,08,21.60
2017,06,24,03,09,21.60
2017,06,24,03,10,21.60
2017,06,24,03,11,21.60
2017,06,24,03,12,21.60
2017,06,24,03,13,21.60
2017,06,24,03,14,21.60
2017,06,24,03,15,21.60
2017,06,24,03,16,21.50
2017,06,24,03,17,21.50
2017,06,24,03,18,21.50
2017,06,24,03,19,21.40
2017,06,24,03,20,21.40
2017,06,24,03,21,21.40
2017,06,24,03,22,21.40
2017,06,24,03,23,21.40
2017,06,24,03,24,21.40
2017,06,24,03,25,21.40
2017,06,24,03,26,21.30
2017,06,24,03,27,21.30
2017,06,24,03,28,21.30
2017,06,24,03,29,21.30
2017,06,24,03,30,21.30
2017,06,24,03,31,21.20
2017,06,24,03,32,21.20
2017,06,24,03,33,21.20
2017,06,24,03,34,21.20
2017,06,24,03,35,21.20
2017,06,24,03,36,21.20
2017,06,24,03,37,21.20
2017,06,24,03,38,21.20
2017,06,24,03,39,21.10
2017,06,24,03,40,21.20
2017,06,24,03,41,21.10
2017,06,24,03,42,21.20
2017,06,24,03,43,21.20
2017,06,24,03,44,21.20
2017,06,24,03,45,21.20
2017,06,24,03,46,21.20
2017,06,24,03,47,21.20
2017,06,24,03,48,21.20
2017,06,24,03,49,21.10
2017,06,24,03,50,21.10
2017,06,24,03,51,21.10
2017,06,24,03,52,21.10
2017,06,24,03,53,21.00
2017,06,24,03,54,21.00
2017,06,24,03,55,21.00
2017,06,24,03,56,21.00
2017,06,24,03,57,21.00
2017,06,24,03,58,21.00
2017,06,24,03,59,20.90
2017,06,24,04,00,20.90
2017,06,24,04,01,20.90
2017,06,24,04,02,20.90
2017,06,24,04,03,20.90
2017,06,24,04,04,20.90
2017,06,24,04,05,20.90
2017,06,24,04,06,20.90
2017,06,24,04,07,20.90
2017,06,24,04,08,20.90
2017,06,24,04,09,20.90
2017,06,24,04,10,20.90
2017,06,24,04,11,20.90
2017,06,24,04,12,20.90
2017,06,24,04,13,20.90
2017,06,24,04,14,20.90
2017,06,24,04,15,20.90
2017,06,24,04,16,20.80
2017,06,24,04,17,20.70
2017,06,24,04,18,20.60
2017,06,24,04,19,20.60
2017,06,24,04,20,20.60
2017,06,24,04,21,20.60
2017,06,24,04,22,20.60
2017,06,24,04,23,20.60
2017,06,24,04,24,20.60
2017,06,24,04,25,20.60
2017,06,24,04,26,20.60
2017,06,24,04,27,20.60
2017,06,24,04,28,20.60
2017,06,24,04,29,20.60
2017,06,24,04,30,20.60
2017,06,24,04,31,20.60
2017,06,24,04,32,20.50
2017,06,24,04,33,20.50
2017,06,24,04,34,20.40
2017,06,24,04,35,20.40
2017,06,24,04,36,20.30
2017,06,24,04,37,20.30
2017,06,24,04,38,20.20
2017,06,24,04,39,20.20
2017,06,24,04,40,20.10
2017,06,24,04,41,20.00
2017,06,24,04,42,20.00
2017,06,24,04,43,19.90
2017,06,24,04,44,19.90
2017,06,24,04,45,19.80
2017,06,24,04,46,19.80
2017,06,24,04,47,19.70
2017,06,24,04,48,19.70
2017,06,24,04,49,19.60
2017,06,24,04,50,19.60
2017,06,24,04,51,19.50
2017,06,24,04,52,19.40
2017,06,24,04,53,19.40
2017,06,24,04,54,19.30
2017,06,24,04,55,19.30
2017,06,24,04,56,19.30
2017,06,24,04,57,19.20
2017,06,24,04,58,19.20
2017,06,24,04,59,19.10
2017,06,24,05,00,19.10
2017,06,24,05,01,19.10
2017,06,24,05,02,19.00
2017,06,24,05,03,19.00
2017,06,24,05,04,18.90
2017,06,24,05,05,18.90
2017,06,24,05,06,18.80
2017,06,24,05,07,18.70
2017,06,24,05,08,18.60
2017,06,24,05,09,18.50
2017,06,24,05,10,18.40
2017,06,24,05,11,18.40
2017,06,24,05,12,18.30
2017,06,24,05,13,18.20
2017,06,24,05,14,18.10
2017,06,24,05,15,18.00
2017,06,24,05,16,17.90
2017,06,24,05,17,17.80
2017,06,24,05,18,17.80
2017,06,24,05,19,17.70
2017,06,24,05,20,17.60
2017,06,24,05,21,17.60
2017,06,24,05,22,17.50
2017,06,24,05,23,17.40
2017,06,24,05,24,17.30
2017,06,24,05,25,17.30
2017,06,24,05,26,17.30
2017,06,24,05,27,17.20
2017,06,24,05,28,17.20
2017,06,24,05,29,17.20
2017,06,24,05,30,17.20
2017,06,24,05,31,17.20
2017,06,24,05,32,17.10
2017,06,24,05,33,17.10
2017,06,24,05,34,17.10
2017,06,24,05,35,17.10
2017,06,24,05,36,17.10
2017,06,24,05,37,17.00
2017,06,24,05,38,17.00
2017,06,24,05,39,16.90
2017,06,24,05,40,16.90
2017,06,24,05,41,16.90
2017,06,24,05,42,16.80
2017,06,24,05,43,16.70
2017,06,24,05,44,16.60
2017,06,24,05,45,16.60
2017,06,24,05,46,16.50
2017,06,24,05,47,16.50
2017,06,24,05,48,16.50
2017,06,24,05,49,16.50
2017,06,24,05,50,16.50
2017,06,24,05,51,16.50
2017,06,24,05,52,16.40
2017,06,24,05,53,16.40
2017,06,24,05,54,16.40
2017,06,24,05,55,16.40
2017,06,24,05,56,16.40
2017,06,24,05,57,16.40
2017,06,24,05,58,16.30
2017,06,24,05,59,16.30
2017,06,24,06,00,16.30
2017,06,24,06,01,16.30
2017,06,24,06,02,16.30
2017,06,24,06,03,16.40
2017,06,24,06,04,16.40
2017,06,24,06,05,16.40
2017,06,24,06,06,16.40
2017,06,24,06,07,16.40
2017,06,24,06,08,16.50
2017,06,24,06,09,16.50
2017,06,24,06,10,16.60
2017,06,24,06,11,16.60
2017,06,24,06,12,16.60
2017,06,24,06,13,16.70
2017,06,24,06,14,16.70
2017,06,24,06,15,16.70
2017,06,24,06,16,16.80
2017,06,24,06,17,16.80
2017,06,24,06,18,16.90
2017,06,24,06,19,16.90
2017,06,24,06,20,17.00
2017,06,24,06,21,17.00
2017,06,24,06,22,17.10
2017,06,24,06,23,17.10
2017,06,24,06,24,17.20
2017,06,24,06,25,17.30
2017,06,24,06,26,17.30
2017,06,24,06,27,17.50
2017,06,24,06,28,17.60
2017,06,24,06,29,17.60
2017,06,24,06,30,17.70
2017,06,24,06,31,17.70
2017,06,24,06,32,17.70
2017,06,24,06,33,17.80
2017,06,24,06,34,17.90
2017,06,24,06,35,17.90
2017,06,24,06,36,17.90
2017,06,24,06,37,18.00
2017,06,24,06,38,18.10
2017,06,24,06,39,18.10
2017,06,24,06,40,18.20
2017,06,24,06,41,18.20
2017,06,24,06,42,18.30
2017,06,24,06,43,18.40
2017,06,24,06,44,18.40
2017,06,24,06,45,18.40
2017,06,24,06,46,18.40
2017,06,24,06,47,18.40
2017,06,24,06,48,18.40
2017,06,24,06,49,18.40
2017,06,24,06,50,18.50
2017,06,24,06,51,18.50
2017,06,24,06,52,18.50
2017,06,24,06,53,18.60
2017,06,24,06,54,18.60
2017,06,24,06,55,18.70
2017,06,24,06,56,18.80
2017,06,24,06,57,18.80
2017,06,24,06,58,18.80
2017,06,24,06,59,18.90
2017,06,24,07,00,18.90
2017,06,24,07,01,19.00
2017,06,24,07,02,19.10
2017,06,24,07,03,19.20
2017,06,24,07,04,19.30
2017,06,24,07,05,19.30
2017,06,24,07,06,19.40
2017,06,24,07,07,19.50
2017,06,24,07,08,19.60
2017,06,24,07,09,19.70
2017,06,24,07,10,19.70
2017,06,24,07,11,19.80
2017,06,24,07,12,19.80
2017,06,24,07,13,19.80
2017,06,24,07,14,19.80
2017,06,24,07,15,19.80
2017,06,24,07,16,19.80
2017,06,24,07,17,19.80
2017,06,24,07,18,19.80
2017,06,24,07,19,19.80
2017,06,24,07,20,19.90
2017,06,24,07,21,19.90
2017,06,24,07,22,19.90
2017,06,24,07,23,20.00
2017,06,24,07,24,20.00
2017,06,24,07,25,20.10
2017,06,24,07,26,20.10
2017,06,24,07,27,20.10
2017,06,24,07,28,20.10
2017,06,24,07,29,20.10
2017,06,24,07,30,20.00
2017,06,24,07,31,20.00
2017,06,24,07,32,19.90
2017,06,24,07,33,19.90
2017,06,24,07,34,19.80
2017,06,24,07,35,19.80
2017,06,24,07,36,19.80
2017,06,24,07,37,19.70
2017,06,24,07,38,19.60
2017,06,24,07,39,19.60
2017,06,24,07,40,19.60
2017,06,24,07,41,19.50
2017,06,24,07,42,19.50
2017,06,24,07,43,19.50
2017,06,24,07,44,19.50
2017,06,24,07,45,19.50
2017,06,24,07,46,19.60
2017,06,24,07,47,19.60
2017,06,24,07,48,19.70
2017,06,24,07,49,19.70
2017,06,24,07,50,19.70
2017,06,24,07,51,19.80
2017,06,24,07,52,19.80
2017,06,24,07,53,19.70
2017,06,24,07,54,19.70
2017,06,24,07,55,19.70
2017,06,24,07,56,19.80
2017,06,24,07,57,19.80
2017,06,24,07,58,19.80
2017,06,24,07,59,19.80
2017,06,24,08,00,19.80
2017,06,24,08,01,19.80
2017,06,24,08,02,19.80
2017,06,24,08,03,19.90
2017,06,24,08,04,19.90
2017,06,24,08,05,20.00
2017,06,24,08,06,20.10
2017,06,24,08,07,20.10
2017,06,24,08,08,20.20
2017,06,24,08,09,20.30
2017,06,24,08,10,20.30
2017,06,24,08,11,20.30
2017,06,24,08,12,20.40
2017,06,24,08,13,20.40
2017,06,24,08,14,20.50
2017,06,24,08,15,20.60
2017,06,24,08,16,20.70
2017,06,24,08,17,20.70
2017,06,24,08,18,20.60
2017,06,24,08,19,20.60
2017,06,24,08,20,20.60
2017,06,24,08,21,20.60
2017,06,24,08,22,20.60
2017,06,24,08,23,20.50
2017,06,24,08,24,20.40
2017,06,24,08,25,20.40
2017,06,24,08,26,20.30
2017,06,24,08,27,20.30
2017,06,24,08,28,20.30
2017,06,24,08,29,20.30
2017,06,24,08,30,20.30
2017,06,24,08,31,20.30
2017,06,24,08,32,20.30
2017,06,24,08,33,20.30
2017,06,24,08,34,20.30
2017,06,24,08,35,20.30
2017,06,24,08,36,20.30
2017,06,24,08,37,20.40
2017,06,24,08,38,20.40
2017,06,24,08,39,20.50
2017,06,24,08,40,20.50
2017,06,24,08,41,20.60
2017,06,24,08,42,20.50
2017,06,24,08,43,20.50
2017,06,24,08,44,20.40
2017,06,24,08,45,20.50
2017,06,24,08,46,20.50
2017,06,24,08,47,20.60
2017,06,24,08,48,20.60
2017,06,24,08,49,20.70
2017,06,24,08,50,20.70
2017,06,24,08,51,20.80
2017,06,24,08,52,20.80
2017,06,24,08,53,20.90
2017,06,24,08,54,21.00
2017,06,24,08,55,21.20
2017,06,24,08,56,21.30
2017,06,24,08,57,21.40
2017,06,24,08,58,21.50
2017,06,24,08,59,21.60
2017,06,24,09,00,21.70
2017,06,24,09,01,21.70
2017,06,24,09,02,21.80
2017,06,24,09,03,21.90
2017,06,24,09,04,21.90
2017,06,24,09,05,22.10
2017,06,24,09,06,22.20
2017,06,24,09,07,22.40
2017,06,24,09,08,22.60
2017,06,24,09,09,22.70
2017,06,24,09,10,22.80
2017,06,24,09,11,22.90
2017,06,24,09,12,23.00
2017,06,24,09,13,23.00
2017,06,24,09,14,23.10
2017,06,24,09,15,23.10
2017,06,24,09,16,23.10
2017,06,24,09,17,23.20
2017,06,24,09,18,23.20
2017,06,24,09,19,23.20
2017,06,24,09,20,23.30
2017,06,24,09,21,23.30
2017,06,24,09,22,23.40
2017,06,24,09,23,23.50
2017,06,24,09,24,23.60
2017,06,24,09,25,23.60
2017,06,24,09,26,23.60
2017,06,24,09,27,23.50
2017,06,24,09,28,23.50
2017,06,24,09,29,23.40
2017,06,24,09,30,23.40
2017,06,24,09,31,23.40
2017,06,24,09,32,23.40
2017,06,24,09,33,23.50
2017,06,24,09,34,23.60
2017,06,24,09,35,23.60
2017,06,24,09,36,23.70
2017,06,24,09,37,23.70
2017,06,24,09,38,23.70
2017,06,24,09,39,23.70
2017,06,24,09,40,23.80
2017,06,24,09,41,23.80
2017,06,24,09,42,23.80
2017,06,24,09,43,23.80
2017,06,24,09,44,23.80
2017,06,24,09,45,23.80
2017,06,24,09,46,23.80
2017,06,24,09,47,23.90
2017,06,24,09,48,23.90
2017,06,24,09,49,24.00
2017,06,24,09,50,24.10
2017,06,24,09,51,24.10
2017,06,24,09,52,24.20
2017,06,24,09,53,24.30
2017,06,24,09,54,24.40
2017,06,24,09,55,24.40
2017,06,24,09,56,24.40
2017,06,24,09,57,24.40
2017,06,24,09,58,24.40
2017,06,24,09,59,24.40
2017,06,24,10,00,24.40
2017,06,24,10,01,24.40
2017,06,24,10,02,24.40
2017,06,24,10,03,24.50
2017,06,24,10,04,24.50
2017,06,24,10,05,24.50
2017,06,24,10,06,24.60
2017,06,24,10,07,24.70
2017,06,24,10,08,24.80
2017,06,24,10,09,24.80
2017,06,24,10,10,24.80
2017,06,24,10,11,24.80
2017,06,24,10,12,24.90
2017,06,24,10,13,24.90
2017,06,24,10,14,25.00
2017,06,24,10,15,25.10
2017,06,24,10,16,25.20
2017,06,24,10,17,25.30
2017,06,24,10,18,25.40
2017,06,24,10,19,25.40
2017,06,24,10,20,25.40
2017,06,24,10,21,25.40
2017,06,24,10,22,25.40
2017,06,24,10,23,25.50
2017,06,24,10,24,25.50
2017,06,24,10,25,25.60
2017,06,24,10,26,25.60
2017,06,24,10,27,25.70
2017,06,24,10,28,25.80
2017,06,24,10,29,25.80
2017,06,24,10,30,25.80
2017,06,24,10,31,25.90
2017,06,24,10,32,26.00
2017,06,24,10,33,25.90
2017,06,24,10,34,25.90
2017,06,24,10,35,25.90
2017,06,24,10,36,25.90
2017,06,24,10,37,25.90
2017,06,24,10,38,25.90
2017,06,24,10,39,26.00
2017,06,24,10,40,26.00
2017,06,24,10,41,26.00
2017,06,24,10,42,26.00
2017,06,24,10,43,26.00
2017,06,24,10,44,26.10
2017,06,24,10,45,26.10
2017,06,24,10,46,26.20
2017,06,24,10,47,26.30
2017,06,24,10,48,26.30
2017,06,24,10,49,26.30
2017,06,24,10,50,26.30
2017,06,24,10,51,26.40
2017,06,24,10,52,26.40
2017,06,24,10,53,26.40
2017,06,24,10,54,26.40
2017,06,24,10,55,26.50
2017,06,24,10,56,26.40
2017,06,24,10,57,26.40
2017,06,24,10,58,26.50
2017,06,24,10,59,26.50
2017,06,24,11,00,26.50
2017,06,24,11,01,26.40
2017,06,24,11,02,26.40
2017,06,24,11,03,26.40
2017,06,24,11,04,26.40
2017,06,24,11,05,26.40
2017,06,24,11,06,26.30
2017,06,24,11,07,26.30
2017,06,24,11,08,26.40
2017,06,24,11,09,26.40
2017,06,24,11,10,26.50
2017,06,24,11,11,26.50
2017,06,24,11,12,26.50
2017,06,24,11,13,26.60
2017,06,24,11,14,26.60
2017,06,24,11,15,26.60
2017,06,24,11,16,26.60
2017,06,24,11,17,26.60
2017,06,24,11,18,26.60
2017,06,24,11,19,26.70
2017,06,24,11,20,26.70
2017,06,24,11,21,26.70
2017,06,24,11,22,26.70
2017,06,24,11,23,26.70
2017,06,24,11,24,26.70
2017,06,24,11,25,26.70
2017,06,24,11,26,26.70
2017,06,24,11,27,26.70
2017,06,24,11,28,26.70
2017,06,24,11,29,26.70
2017,06,24,11,30,26.70
2017,06,24,11,31,26.70
2017,06,24,11,32,26.80
2017,06,24,11,33,26.80
2017,06,24,11,34,26.90
2017,06,24,11,35,27.00
2017,06,24,11,36,27.10
2017,06,24,11,37,27.20
2017,06,24,11,38,27.30
2017,06,24,11,39,27.30
2017,06,24,11,40,27.30
2017,06,24,11,41,27.40
2017,06,24,11,42,27.50
2017,06,24,11,43,27.60
2017,06,24,11,44,27.70
2017,06,24,11,45,27.80
2017,06,24,11,46,27.80
2017,06,24,11,47,27.80
2017,06,24,11,48,27.80
2017,06,24,11,49,27.90
2017,06,24,11,50,27.90
2017,06,24,11,51,27.80
2017,06,24,11,52,27.80
2017,06,24,11,53,27.70
2017,06,24,11,54,27.80
2017,06,24,11,55,27.90
2017,06,24,11,56,27.90
2017,06,24,11,57,28.10
2017,06,24,11,58,28.10
2017,06,24,11,59,28.30
2017,06,24,12,00,28.30
2017,06,24,12,01,28.30
2017,06,24,12,02,28.30
2017,06,24,12,03,28.30
2017,06,24,12,04,28.40
2017,06,24,12,05,28.40
2017,06,24,12,06,28.40
2017,06,24,12,07,28.50
2017,06,24,12,08,28.50
2017,06,24,12,09,28.70
2017,06,24,12,10,28.60
2017,06,24,12,11,28.50
2017,06,24,12,12,28.40
2017,06,24,12,13,28.40
2017,06,24,12,14,28.40
2017,06,24,12,15,28.40
2017,06,24,12,16,28.50
2017,06,24,12,17,28.40
2017,06,24,12,18,28.50
2017,06,24,12,19,28.50
2017,06,24,12,20,28.60
2017,06,24,12,21,28.60
2017,06,24,12,22,28.60
2017,06,24,12,23,28.70
2017,06,24,12,24,28.70
2017,06,24,12,25,28.70
2017,06,24,12,26,28.70
2017,06,24,12,27,28.60
2017,06,24,12,28,28.70
2017,06,24,12,29,28.70
2017,06,24,12,30,28.80
2017,06,24,12,31,28.80
2017,06,24,12,32,28.90
2017,06,24,12,33,28.90
2017,06,24,12,34,29.00
2017,06,24,12,35,29.00
2017,06,24,12,36,29.10
2017,06,24,12,37,29.10
2017,06,24,12,38,29.20
2017,06,24,12,39,29.20
2017,06,24,12,40,29.20
2017,06,24,12,41,29.30
2017,06,24,12,42,29.40
2017,06,24,12,43,29.50
2017,06,24,12,44,29.60
2017,06,24,12,45,29.70
2017,06,24,12,46,29.80
2017,06,24,12,47,29.90
2017,06,24,12,48,29.90
2017,06,24,12,49,29.80
2017,06,24,12,50,29.80
2017,06,24,12,51,29.70
2017,06,24,12,52,29.70
2017,06,24,12,53,29.70
2017,06,24,12,54,29.70
2017,06,24,12,55,29.80
2017,06,24,12,56,29.70
2017,06,24,12,57,29.70
2017,06,24,12,58,29.50
2017,06,24,12,59,29.20
2017,06,24,13,00,28.80
2017,06,24,13,01,28.40
2017,06,24,13,02,28.00
2017,06,24,13,03,27.70
2017,06,24,13,04,27.40
2017,06,24,13,05,27.10
2017,06,24,13,06,26.90
2017,06,24,13,07,26.80
2017,06,24,13,08,26.80
2017,06,24,13,09,26.70
2017,06,24,13,10,26.70
2017,06,24,13,11,26.70
2017,06,24,13,12,26.70
2017,06,24,13,13,26.80
2017,06,24,13,14,26.90
2017,06,24,13,15,27.00
2017,06,24,13,16,27.10
2017,06,24,13,17,27.20
2017,06,24,13,18,27.20
2017,06,24,13,19,27.30
2017,06,24,13,20,27.30
2017,06,24,13,21,27.30
2017,06,24,13,22,27.30
2017,06,24,13,23,27.20
2017,06,24,13,24,27.10
2017,06,24,13,25,27.10
2017,06,24,13,26,27.00
2017,06,24,13,27,26.90
2017,06,24,13,28,26.90
2017,06,24,13,29,26.90
2017,06,24,13,30,27.00
2017,06,24,13,31,26.90
2017,06,24,13,32,26.80
2017,06,24,13,33,26.60
2017,06,24,13,34,26.40
2017,06,24,13,35,26.10
2017,06,24,13,36,25.70
2017,06,24,13,37,25.40
2017,06,24,13,38,25.20
2017,06,24,13,39,25.10
2017,06,24,13,40,25.00
2017,06,24,13,41,24.90
2017,06,24,13,42,25.00
2017,06,24,13,43,25.00
2017,06,24,13,44,25.00
2017,06,24,13,45,24.90
2017,06,24,13,46,24.90
2017,06,24,13,47,24.90
2017,06,24,13,48,24.90
2017,06,24,13,49,25.00
2017,06,24,13,50,25.10
2017,06,24,13,51,25.20
2017,06,24,13,52,25.30
2017,06,24,13,53,25.40
2017,06,24,13,54,25.60
2017,06,24,13,55,25.70
2017,06,24,13,56,25.70
2017,06,24,13,57,25.80
2017,06,24,13,58,25.90
2017,06,24,13,59,26.00
2017,06,24,14,00,26.10
2017,06,24,14,01,26.10
2017,06,24,14,02,26.10
2017,06,24,14,03,26.10
2017,06,24,14,04,26.00
2017,06,24,14,05,26.00
2017,06,24,14,06,25.90
2017,06,24,14,07,25.90
2017,06,24,14,08,25.80
2017,06,24,14,09,25.70
2017,06,24,14,10,25.60
2017,06,24,14,11,25.60
2017,06,24,14,12,25.60
2017,06,24,14,13,25.60
2017,06,24,14,14,25.50
2017,06,24,14,15,25.40
2017,06,24,14,16,25.40
2017,06,24,14,17,25.30
2017,06,24,14,18,25.20
2017,06,24,14,19,25.10
2017,06,24,14,20,25.00
2017,06,24,14,21,25.00
2017,06,24,14,22,24.90
2017,06,24,14,23,24.90
2017,06,24,14,24,25.00
2017,06,24,14,25,25.00
2017,06,24,14,26,25.00
2017,06,24,14,27,25.00
2017,06,24,14,28,25.00
2017,06,24,14,29,25.00
2017,06,24,14,30,24.90
2017,06,24,14,31,24.90
2017,06,24,14,32,24.90
2017,06,24,14,33,24.80
2017,06,24,14,34,24.80
2017,06,24,14,35,24.80
2017,06,24,14,36,24.80
2017,06,24,14,37,24.80
2017,06,24,14,38,24.70
2017,06,24,14,39,24.70
2017,06,24,14,40,24.80
2017,06,24,14,41,24.90
2017,06,24,14,42,25.00
2017,06,24,14,43,25.10
2017,06,24,14,44,25.10
2017,06,24,14,45,25.10
2017,06,24,14,46,25.10
2017,06,24,14,47,25.10
2017,06,24,14,48,25.10
2017,06,24,14,49,25.20
2017,06,24,14,50,25.20
2017,06,24,14,51,25.30
2017,06,24,14,52,25.40
2017,06,24,14,53,25.40
2017,06,24,14,54,25.40
2017,06,24,14,55,25.40
2017,06,24,14,56,25.50
2017,06,24,14,57,25.60
2017,06,24,14,58,25.60
2017,06,24,14,59,25.70
2017,06,24,15,00,25.70
2017,06,24,15,01,25.70
2017,06,24,15,02,25.70
2017,06,24,15,03,25.70
2017,06,24,15,04,25.70
2017,06,24,15,05,25.70
2017,06,24,15,06,25.80
2017,06,24,15,07,25.80
2017,06,24,15,08,25.90
2017,06,24,15,09,25.90
2017,06,24,15,10,26.00
2017,06,24,15,11,26.10
2017,06,24,15,12,26.20
2017,06,24,15,13,26.30
2017,06,24,15,14,26.50
2017,06,24,15,15,26.60
2017,06,24,15,16,26.70
2017,06,24,15,17,26.90
2017,06,24,15,18,27.00
2017,06,24,15,19,27.10
2017,06,24,15,20,27.20
2017,06,24,15,21,27.40
2017,06,24,15,22,27.50
2017,06,24,15,23,27.60
2017,06,24,15,24,27.60
2017,06,24,15,25,27.50
2017,06,24,15,26,27.50
2017,06,24,15,27,27.40
2017,06,24,15,28,27.30
2017,06,24,15,29,27.20
2017,06,24,15,30,27.20
2017,06,24,15,31,27.20
2017,06,24,15,32,27.20
2017,06,24,15,33,27.10
2017,06,24,15,34,27.10
2017,06,24,15,35,26.90
2017,06,24,15,36,26.80
2017,06,24,15,37,26.80
2017,06,24,15,38,26.60
2017,06,24,15,39,26.50
2017,06,24,15,40,26.40
2017,06,24,15,41,26.40
2017,06,24,15,42,26.30
2017,06,24,15,43,26.30
2017,06,24,15,44,26.30
2017,06,24,15,45,26.30
2017,06,24,15,46,26.30
2017,06,24,15,47,26.30
2017,06,24,15,48,26.30
2017,06,24,15,49,26.30
2017,06,24,15,50,26.20
2017,06,24,15,51,26.20
2017,06,24,15,52,26.20
2017,06,24,15,53,26.20
2017,06,24,15,54,26.30
2017,06,24,15,55,26.30
2017,06,24,15,56,26.40
2017,06,24,15,57,26.50
2017,06,24,15,58,26.50
2017,06,24,15,59,26.60
2017,06,24,16,00,26.70
2017,06,24,16,01,26.70
2017,06,24,16,02,26.80
2017,06,24,16,03,26.90
2017,06,24,16,04,26.90
2017,06,24,16,05,27.00
2017,06,24,16,06,27.10
2017,06,24,16,07,27.20
2017,06,24,16,08,27.30
2017,06,24,16,09,27.40
2017,06,24,16,10,27.50
2017,06,24,16,11,27.60
2017,06,24,16,12,27.60
2017,06,24,16,13,27.60
2017,06,24,16,14,27.50
2017,06,24,16,15,27.60
2017,06,24,16,16,27.60
2017,06,24,16,17,27.60
2017,06,24,16,18,27.60
2017,06,24,16,19,27.60
2017,06,24,16,20,27.60
2017,06,24,16,21,27.60
2017,06,24,16,22,27.60
2017,06,24,16,23,27.70
2017,06,24,16,24,27.70
2017,06,24,16,25,27.70
2017,06,24,16,26,27.70
2017,06,24,16,27,27.80
2017,06,24,16,28,27.90
2017,06,24,16,29,28.00
2017,06,24,16,30,28.00
2017,06,24,16,31,28.00
2017,06,24,16,32,28.00
2017,06,24,16,33,27.90
2017,06,24,16,34,27.80
2017,06,24,16,35,27.70
2017,06,24,16,36,27.60
2017,06,24,16,37,27.60
2017,06,24,16,38,27.60
2017,06,24,16,39,27.50
2017,06,24,16,40,27.50
2017,06,24,16,41,27.50
2017,06,24,16,42,27.50
2017,06,24,16,43,27.40
2017,06,24,16,44,27.40
2017,06,24,16,45,27.30
2017,06,24,16,46,27.30
2017,06,24,16,47,27.20
2017,06,24,16,48,27.20
2017,06,24,16,49,27.20
2017,06,24,16,50,27.20
2017,06,24,16,51,27.20
2017,06,24,16,52,27.20
2017,06,24,16,53,27.20
2017,06,24,16,54,27.10
2017,06,24,16,55,27.10
2017,06,24,16,56,27.10
2017,06,24,16,57,27.10
2017,06,24,16,58,27.00
2017,06,24,16,59,26.90
2017,06,24,17,00,26.90
2017,06,24,17,01,26.80
2017,06,24,17,02,26.80
2017,06,24,17,03,26.80
2017,06,24,17,04,26.90
2017,06,24,17,05,26.90
2017,06,24,17,06,26.90
2017,06,24,17,07,26.90
2017,06,24,17,08,26.90
2017,06,24,17,09,26.80
2017,06,24,17,10,26.80
2017,06,24,17,11,26.80
2017,06,24,17,12,26.70
2017,06,24,17,13,26.60
2017,06,24,17,14,26.50
2017,06,24,17,15,26.40
2017,06,24,17,16,26.30
2017,06,24,17,17,26.20
2017,06,24,17,18,26.00
2017,06,24,17,19,25.90